{"data":{"norad_id":59312,"epoch":"2026-09-21T06:26:55.454496Z","epoch_age_seconds":95846,"freshness":"FRESH","line1":"1 59312U 24056S   26264.26869739  .00000310  00000+0  20800-4 0  9994","line2":"2 59312  43.0006 213.2725 0000912 286.8915  73.1837 15.27577586140982","mean_motion":15.27577586,"eccentricity":9.12e-5,"inclination_deg":43.0006,"raan_deg":213.2725,"arg_perigee_deg":286.8915,"mean_anomaly_deg":73.1837,"bstar":2.08e-5,"rev_number":14098,"period_min":94.26689768149,"perigee_km":482.43058360242,"apogee_km":483.68206526479,"semimajor_km":6861.1933244336,"source":"CELESTRAK","updated_at":"2026-09-22T09:00:48.896152Z"}}